www.pogodaiklimat.ru

Погода и климат >> Архив погоды >> Россия >> Ленинградская область >> Озерки


ПОГОДА в Озерках

  • Прогноз погоды в Озерках
  • Монитор погоды в Озерках

АРХИВ ПОГОДЫ в Озерках

Время (UTC), дата Ветер
(напр.,м/с)
 
Видим.   Явления Облачность Т
(С)
Тd
(С)
f
(%)
Тe
(С)
Тes
(С)
Комфортность P
(гПа)
Po
(гПа)
Тmin
(С)
Tmax
(С)
R
(мм)
R24
(мм)
S
(см)
00 14.04 н/о н/о
03 14.04 штиль 0 20 км н/о -0.7 -3.6 81 -2 -2 1034.5 1033.1 -2.3
06 14.04 20 км 6/0
[As op]
+3.9 -3.2 60 1033.9 1033.5 -2.3
09 14.04 В 2 20 км н/о +8.3 -6.6 34 +7 +7 1034.9 1033.5
12 14.04 н/о н/о
15 14.04 В 2 20 км 8/6 600 м
[Sc As op]
+6.9 -6.9 37 +5 +6 1034.1 1032.7
18 14.04 В 1 20 км 6/0
[As op]
+1.7 -5.3 60 +1 +1 1034.2 1032.8 +9.2
21 14.04 н/о н/о
00 15.04 н/о н/о
03 15.04 СВ 1 20 км н/о -2.3 -5.5 79 -2.3
06 15.04 СЗ 1 20 км 3/0
[Ci fib]
+3.8 -3.9 57 +3 +7 1035.8 1034.4 -2.4 <0.5
09 15.04 СЗ 3 20 км н/о +5.1 -3.2 55 +2 +2 1036.2 1034.8
12 15.04 СЗ 3 20 км н/о +4.2 -0.4 72 +1 +1 1034.7 1033.3
15 15.04 З 1 20 км н/о +5.2 -0.1 69
18 15.04 штиль 0 20 км ясно +2.5 -0.8 79 +2 +2 1032.8 1031.4 +7.3
21 15.04 штиль 0 20 км н/о +0.7 -2.2 81 -0 -0 1033.4 1032.0
00 16.04 В 1 20 км н/о -0.7 -3.0 84
03 16.04 СВ 1 20 км н/о -1.2 -2.9 88 -1.5
06 16.04 СВ 1 20 км ясно +7.8 -0.9 54 +7 +12 1034.0 1032.6 -1.5 1
09 16.04 СВ 2 20 км н/о +12.7 -0.8 39 +12 +12 1034.4 1033.0
12 16.04 З 2 20 км н/о +9.6 -0.4 50 +8 +8 1034.5 1033.1
15 16.04 В 3 20 км н/о +11.8 -2.1 38 +11 +11 1033.9 1032.5
18 16.04 В 1 20 км ясно +6.1 -1.7 57 +5 +5 1034.5 1033.1 +14.1
21 16.04 СВ 1 20 км н/о +1.5 -1.8 79 -0 -0 1035.3 1033.9
00 17.04 В 2 20 км н/о +2.2 -1.7 75 -1 -1 1035.6 1034.2
03 17.04 В 1 20 км н/о +0.4 -1.8 85 -2 -2 1035.9 1034.5 -0.3
06 17.04 СЗ 2 20 км ясно +3.7 -0.6 73 +1 +5 1036.3 1034.9 -0.3
09 17.04 ЮЗ 3 20 км н/о +6.9 -0.1 61 +4 +4 1035.9 1034.5
12 17.04 З 1 19 км н/о +6.0 +2.8 80 +5 +5 1035.0 1033.6
15 17.04 З 2 20 км н/о +6.1 +2.0 75 +4 +4 1033.6 1032.2
18 17.04 штиль 0 20 км 8/0
[Cc]
+5.0 +0.8 74 +4 +4 1032.8 1031.4 +7.7
21 17.04 штиль 0 20 км н/о +3.2 +0.2 81 +2 +2 1032.8 1031.4
00 18.04 штиль 0 20 км н/о +1.5 -0.7 85 0 0 1032.7 1031.3
03 18.04 В 1 20 км н/о +0.1 -1.3 90 -2 -2 1032.8 1031.4 0.0
06 18.04 З 1 20 км ясно +4.8 +0.4 73 +4 +8 1033.7 1032.3 0.0 1
09 18.04 СЗ 3 20 км н/о +7.7 +1.2 63 +5 +5 1034.3 1032.9
12 18.04 З 2 20 км н/о +8.8 +2.2 63 +7 +7 1034.2 1032.8
15 18.04 З 2 20 км н/о +9.0 +1.9 61
18 18.04 В 1 20 км ясно +4.9 +1.6 79 +4 +4 1034.0 1032.6 +10.8
21 18.04 В 1 20 км н/о +0.7 -0.8 90
00 19.04 В 1 20 км н/о -0.2 -1.3 92
03 19.04 штиль 0 20 км н/о +2.4 +1.3 92 -0.3
06 19.04 ЮЗ 2 20 км 8/0
[Ci]
+6.2 +1.9 74 +4 +7 1032.7 1031.3 -0.3 0
09 19.04 ЮЗ 2 20 км 8/0
[Ci]
+6.5 +4.0 84 +4 +12 1031.8 1030.4
12 19.04 З 1 20 км н/о +7.5 +3.6 76 +7 +7 1030.9 1029.5
15 19.04 З 2 20 км н/о +8.5 +2.2 65 +7 +7 1029.7 1028.3
18 19.04 С 1 20 км 10/0
[As op]
+8.4 +2.0 64 +8 +8 1029.2 1027.8 +11.0
21 19.04 н/о н/о
00 20.04 н/о н/о
03 20.04 н/о н/о +1.2
06 20.04 В 2 20 км ясно +7.9 -1.7 51 +6 +10 1029.3 1027.9 +1.2 <0.5
09 20.04 н/о н/о
12 20.04 В 1 20 км н/о +11.1 -4.0 34 +11 +11 1028.0 1026.6
15 20.04 ЮЗ 1 20 км н/о +7.6 +2.1 68 +7 +7 1027.9 1026.5
18 20.04 В 1 20 км 10/0
[Ac und Cs]
+4.8 -0.2 70 +4 +4 1028.5 1027.1 +12.1
21 20.04 н/о н/о

 

Местоположение метеостанции Озерки (Ленинградская область, Россия): широта 60.20 долгота 29.00 высота над уровнем моря 11 м.

В архиве по умолчанию представлена погода в Озерках за последнюю неделю. Архивные данные за месяц целиком и за предыдущие месяцы, начиная с января 2011 года, Вы можете получить, выбрав интересующий диапазон дат из раскрывающегося списка и нажав кнопку "Ввод!".


*Определитесь, кто Вы:
робот инопланетянин человек

Внимание! Время в таблицах - всемирное. Для получения местного времени необходимо прибавить поправку, которая равна 3 ч.

Смотрите также архив погоды в соседних городах и на ближайших метеорологических станциях:

Погода в Рощино (Ленинградская область, Россия) (35 км)
Погода в Шепелево (Ленинградская область, Россия) (42 км)
Погода в Сосновом Бору (Ленинградская область, Россия) (43 км)
Погода в Кронштадте (город Санкт-Петербург, Россия) (49 км)
Погода в Ломоносове (город Санкт-Петербург, Россия) (53 км)
Погода в Лисьем Носу (город Санкт-Петербург, Россия) (58 км)
Погода в Выборге (Ленинградская область, Россия) (60 км)
Погода в Санкт-Петербурге (город Санкт-Петербург, Россия) (77 км)
Погода в Коивуниеми (Финляндия) (82 км)
Погода в Сосново (Ленинградская область, Россия) (82 км)

Пояснения к столбцам:

Ветер - указаны скорость ветра в м/с - средняя за 10 мин, порывы в срок и между сроками (в фигурных скобках) и направление, откуда дует ветер: С - северный, СВ - северо-восточный, В - восточный, ЮВ - юго-восточный, Ю - южный, ЮЗ - юго-западный, З - западный, СЗ - северо-западный.
Видимость - горизонтальная дальность видимости в метрах или километрах. При видимости от 1 до 10 км при отсутствии осадков обычно наблюдается дымка, при ухудшении видимости до 1 км и менее - туман. В сухую погоду видимость может ухудшаться дымом, пылью или мглою.
Явления - указаны атмосферные явления, наблюдавшиеся в срок или в последний час перед сроком; фигурными скобками обозначены явления, наблюдавшиеся между сроками (за 1-3 часа до срока); квадратными скобками обозначены град или гололедные отложения с указанием их диаметра в мм.
Облачность - указаны через наклонную черту общая и нижняя облачность в баллах и высота нижней границы облаков в метрах; квадратными скобками обозначены формы облаков: Ci - перистые, Cs - перисто-слоистые, Cc - перисто-кучевые, Ac - высококучевые, As - высокослоистые, Sc - слоисто-кучевые, Ns - слоисто-дождевые, Cu - кучевые, Cb - кучево-дождевые. Подробнее классификацию облаков см. в Атласе облаков (PDF).
T - Температура воздуха - температура, измеренная на высоте 2 м над землей.
Td - Температура точки росы - температура, при понижении до которой содержащийся в воздухе водяной пар достигнет насыщения.
f - Относительная влажность воздуха - влажноcть воздуха, измеренная на высоте 2 м над землей.
Te - Эффективная температура - температура, которую ощущает одетый по сезону человек в тени. Характеристика душности погоды. При расчете учитывается влияние влажности воздуха и скорости ветра на теплоощущения человека.
Tes - Эффективная температура на солнце - температура, которую ощущает человек, с поправкой на солнечный нагрев. Характеристика знойности погоды. Зависит от высоты солнца над горизонтом, облачности и скорости ветра. Ночью, в пасмурную погоду, а также при ветре 12 м/с и более поправка равна нулю.
P - Атмосферное давление - приведенное к уровню моря атмосферное давление.
Po - Атмосферное давление - измеренное на уровне метеостанции атмосферное давление.
Tmin - Минимальная температура - минимум температуры воздуха на высоте 2 м над землей.
Tmax - Максимальная температура - максимум температуры воздуха на высоте 2 м над землей.
R - Количество осадков - Количество выпавших осадков за период времени, мм. При наведении курсора мыши на число - период времени, за который выпало указанное количество осадков.
R24 - Количество осадков - Количество выпавших осадков за 24 часа, мм.
S - Снежный покров - Высота снежного покрова, см. При наведении курсора мыши на число - состояние снежного покрова и степень покрытия местности в баллах.